Biloxi, MS

10:56 PM CST on February 08, 2016 (GMT -0600)
Keesler Air Force Base

Weather History for KBIX - August, 2014

Change the Weather History Date:

Sunday, August 24, 2014

  Actual Average Record
Temperature  
Mean Temperature 89 °F -  
Max Temperature 99 °F 90 °F 99 °F (2014)
Min Temperature 79 °F 74 °F 65 °F (1957)
Cooling Degree Days 24    
Growing Degree Days 39 (Base 50)    
Moisture  
Dew Point 72 °F    
Average Humidity 60    
Maximum Humidity 83    
Minimum Humidity 36    
Precipitation  
Precipitation 0.00 in - - ()
Sea Level Pressure  
Sea Level Pressure 29.90 in    
Wind  
Wind Speed 6 mph (North)    
Max Wind Speed 13 mph    
Max Gust Speed 17 mph    
Visibility 10 miles    
Events      
Averages and records for this station are not official NWS values.
T = Trace of Precipitation, MM = Missing Value Source: NWS Daily Summary

Daily Weather History Graph

Daily Weather History Graph

Search for Another Location

Airport or City:

Trip Planner

Search our weather history database for the weather conditions in past years. The results will help you decide how hot, cold, wet, or windy it might be!

Date:

Astronomy

Aug. 24, 2014 Rise Set
Actual Time 6:27 AM CDT 7:27 PM CDT
Civil Twilight 6:02 AM CDT 7:52 PM CDT
Nautical Twilight 5:33 AM CDT 8:21 PM CDT
Astronomical Twilight 5:03 AM CDT 8:51 PM CDT
Moon 5:37 AM CDT (8/24) 6:48 PM CDT (8/24)
Length of Visible Light 13h 49m
Length of Day
12h 59m
Waning Crescent, 1% of the Moon is Illuminated
Aug 24
Waning Crescent
Aug 25
New
Sep 2
First Quarter
Sep 8
Full
Sep 15
Last Quarter

Hourly Weather History & Observations

Time (CDT) Temp. Heat Index Dew Point Humidity Pressure Visibility Wind Dir Wind Speed Gust Speed Precip Events Conditions
12:58 AM 82.8 °F 90.7 °F 75.9 °F 80% 29.93 in 10.0 mi NW 5.8 mph - N/A   Clear
1:58 AM 82.0 °F 89.7 °F 76.5 °F 83% 29.92 in 10.0 mi NNW 5.8 mph - N/A   Clear
2:58 AM 81.1 °F 87.4 °F 75.4 °F 83% 29.91 in 10.0 mi NNW 4.6 mph - N/A   Clear
3:58 AM 80.4 °F 85.3 °F 74.1 °F 81% 29.90 in 10.0 mi North 4.6 mph - N/A   Clear
4:58 AM 80.4 °F 84.7 °F 72.7 °F 77% 29.91 in 10.0 mi NNE 3.5 mph - N/A   Clear
5:58 AM 79.5 °F - 72.3 °F 79% 29.93 in 9.0 mi NNE 4.6 mph - N/A   Clear
6:58 AM 79.2 °F - 72.0 °F 78% 29.94 in 10.0 mi North 4.6 mph - N/A   Clear
7:58 AM 81.5 °F 86.1 °F 72.0 °F 73% 29.94 in 10.0 mi North 6.9 mph - N/A   Clear
8:58 AM 85.6 °F 92.2 °F 72.9 °F 65% 29.95 in 10.0 mi NNE 8.1 mph - N/A   Clear
9:58 AM 89.8 °F 99.2 °F 74.3 °F 60% 29.95 in 10.0 mi NNE 6.9 mph - N/A   Clear
10:58 AM 93.2 °F 102.4 °F 73.2 °F 52% 29.94 in 10.0 mi NNE 5.8 mph - N/A   Clear
11:58 AM 95.4 °F 102.7 °F 71.2 °F 45% 29.93 in 10.0 mi NE 6.9 mph - N/A   Clear
12:58 PM 97.0 °F 103.5 °F 69.8 °F 41% 29.92 in 10.0 mi North 9.2 mph - N/A   Clear
1:58 PM 97.9 °F 104.0 °F 68.9 °F 39% 29.89 in 10.0 mi North 8.1 mph - N/A   Clear
2:58 PM 99.9 °F 105.9 °F 68.9 °F 36% 29.88 in 10.0 mi NNW 6.9 mph 17.3 mph N/A   Clear
3:58 PM 99.3 °F 105.6 °F 68.7 °F 37% 29.86 in 10.0 mi North 12.7 mph - N/A   Partly Cloudy
4:58 PM 98.6 °F 104.8 °F 69.1 °F 38% 29.84 in 10.0 mi North 6.9 mph - N/A   Clear
5:58 PM 97.0 °F 103.5 °F 70.0 °F 41% 29.84 in 10.0 mi North 5.8 mph - N/A   Clear
6:58 PM 94.5 °F 102.6 °F 72.0 °F 48% 29.84 in 10.0 mi North 5.8 mph - N/A   Clear
7:58 PM 91.6 °F 100.5 °F 73.6 °F 55% 29.86 in 10.0 mi NNW 3.5 mph - N/A   Clear
8:58 PM 89.8 °F 98.6 °F 73.9 °F 59% 29.87 in 10.0 mi North 4.6 mph - N/A   Clear
9:58 PM 88.3 °F 97.4 °F 74.1 °F 63% 29.89 in 10.0 mi North 9.2 mph - N/A   Clear
10:58 PM 86.2 °F 93.8 °F 73.4 °F 66% 29.89 in 10.0 mi NNE 10.4 mph - N/A   Clear
11:58 PM 84.9 °F 91.1 °F 72.5 °F 66% 29.90 in 10.0 mi NE 10.4 mph - N/A   Clear